Tracking 25612 objects as of 20-May-2022
HD Live streaming from Space Station
objects crossing your sky now

STARLINK 1036

Track STARLINK 1036 now!
10-day predictions
STARLINK 1036 is classified as:


NORAD ID: 44741
Int'l Code: 2019-074AE
Perigee: 553.2 km
Apogee: 555.5 km
Inclination: 53.1 °
Period: 95.6 minutes
Semi major axis: 6925 km
RCS: Unknown
Launch date: November 11, 2019
Source: United States (US)
Launch site: AIR FORCE EASTERN TEST RANGE (AFETR)
aabbcc
Your satellite tracking list
Your tracking list is empty




NASA's NSSDC Master Catalog

Two Line Element Set (TLE):
1 44741U 19074AE  22140.21088094  .00000980  00000-0  84669-4 0  9996
2 44741  53.0561 324.2265 0001621  75.3436 284.7733 15.06401902139043
Source of the keplerian elements: AFSPC